Change the Weather History Date:

Wednesday, June 19, 2013

  Actual Average Record
Temperature  
Mean Temperature 82 °F 80 °F  
Max Temperature 89 °F 89 °F 100 °F (1940)
Min Temperature 74 °F 70 °F 54 °F (1961)
Degree Days  
Heating Degree Days 0 0  
Month to date heating degree days 0 0  
Since 1 June heating degree days 0 0  
Since 1 July heating degree days 1846 1975  
Cooling Degree Days 17 15  
Month to date cooling degree days 287 250  
Year to date cooling degree days 634 612  
Since 1 June cooling degree days 287 250  
Growing Degree Days 31 (Base 50)    
Moisture  
Dew Point 72 °F    
Average Humidity 76    
Maximum Humidity 93    
Minimum Humidity 59    
Precipitation  
Precipitation 0.88 in 0.20 in 4.97 in (1973)
Month to date precipitation 9.76 3.34  
Year to date precipitation 33.20 19.65  
Sea Level Pressure  
Sea Level Pressure 29.98 in    
Wind  
Wind Speed 6 mph (ENE)    
Max Wind Speed 16 mph    
Max Gust Speed 20 mph    
Visibility 9 miles    
Events Rain , Thunderstorm    
T = Trace of Precipitation, MM = Missing Value Source: NWS Daily Summary

Daily Weather History Graph

Daily Weather History Graph

Search for Another Location

Airport or City:

Trip Planner

Search our weather history database for the weather conditions in past years. The results will help you decide how hot, cold, wet, or windy it might be!

Date:

Astronomy

Jun. 19, 2013 Rise Set
Actual Time 6:11 AM EDT 8:31 PM EDT
Civil Twilight 5:43 AM EDT 9:00 PM EDT
Nautical Twilight 5:08 AM EDT 9:35 PM EDT
Astronomical Twilight 4:29 AM EDT 10:13 PM EDT
Moon 4:30 PM EDT (6/19) 2:45 AM EDT (6/19)
Length of Visible Light 15h 16m
Length of Day
14h 19m
Waxing Gibbous, 80% of the Moon is Illuminated
Jun 19
Waxing Gibbous
Jun 23
Full
Jun 30
Last Quarter
Jul 8
New
Jul 15
First Quarter

Hourly Weather History & Observations

Time (EDT) Temp. Heat Index Dew Point Humidity Pressure Visibility Wind Dir Wind Speed Gust Speed Precip Events Conditions
12:56 AM 80.1 °F 85.1 °F 75.0 °F 85% 29.91 in 10.0 mi SSW 9.2 mph - N/A   Mostly Cloudy
1:56 AM 81.0 °F 87.3 °F 75.9 °F 85% 29.91 in 10.0 mi SW 6.9 mph - N/A   Mostly Cloudy
2:56 AM 81.0 °F 86.7 °F 75.0 °F 82% 29.91 in 10.0 mi SW 8.1 mph - N/A   Mostly Cloudy
3:56 AM 80.1 °F 84.2 °F 73.0 °F 79% 29.91 in 10.0 mi WSW 8.1 mph - N/A   Scattered Clouds
4:56 AM 79.0 °F - 72.0 °F 79% 29.92 in 10.0 mi WSW 8.1 mph - N/A   Mostly Cloudy
5:56 AM 78.1 °F - 71.1 °F 79% 29.93 in 10.0 mi SW 5.8 mph - N/A   Mostly Cloudy
6:56 AM 78.1 °F - 71.1 °F 79% 29.94 in 10.0 mi WSW 5.8 mph - N/A   Mostly Cloudy
7:56 AM 79.0 °F - 72.0 °F 79% 29.96 in 10.0 mi SW 9.2 mph - N/A   Mostly Cloudy
8:56 AM 80.1 °F 83.6 °F 71.1 °F 74% 29.98 in 10.0 mi West 9.2 mph - N/A   Mostly Cloudy
9:56 AM 81.0 °F 84.9 °F 71.1 °F 72% 29.97 in 10.0 mi West 6.9 mph - N/A   Mostly Cloudy
10:56 AM 82.0 °F 86.3 °F 71.1 °F 69% 29.98 in 10.0 mi WNW 8.1 mph - N/A   Mostly Cloudy
11:56 AM 86.0 °F 92.2 °F 72.0 °F 63% 29.99 in 10.0 mi West 6.9 mph - N/A   Mostly Cloudy
12:56 PM 84.9 °F 90.1 °F 71.1 °F 63% 29.98 in 10.0 mi Variable 5.8 mph - N/A   Mostly Cloudy
1:56 PM 87.1 °F 92.8 °F 71.1 °F 59% 29.96 in 10.0 mi NW 5.8 mph - N/A   Mostly Cloudy
2:56 PM 88.0 °F 94.7 °F 72.0 °F 59% 29.95 in 10.0 mi SW 6.9 mph - N/A   Scattered Clouds
3:25 PM 78.8 °F - 69.8 °F 74% 29.96 in 7.0 mi NNE 15.0 mph 18.4 mph 0.00 in Rain , Thunderstorm Light Thunderstorms and Rain
3:32 PM 75.2 °F - 71.6 °F 89% 29.97 in 3.0 mi NNE 8.1 mph 18.4 mph 0.05 in Rain , Thunderstorm Heavy Thunderstorms and Rain
3:39 PM 75.2 °F - 71.6 °F 89% 29.97 in 2.0 mi North 8.1 mph - 0.23 in Rain , Thunderstorm Heavy Thunderstorms and Rain
3:56 PM 75.0 °F - 72.0 °F 90% 29.99 in 5.0 mi Calm Calm - 0.36 in Rain , Thunderstorm Thunderstorms and Rain
4:11 PM 75.2 °F - 71.6 °F 89% 29.99 in 2.0 mi ENE 6.9 mph - 0.06 in Rain , Thunderstorm Heavy Thunderstorms and Rain
4:32 PM 73.4 °F - 71.6 °F 94% 29.99 in 5.0 mi ENE 9.2 mph - 0.34 in Rain , Thunderstorm Thunderstorms and Rain
4:56 PM 75.0 °F - 72.0 °F 90% 29.98 in 7.0 mi ESE 10.4 mph - 0.41 in Rain Light Rain
5:32 PM 75.2 °F - 71.6 °F 89% 29.98 in 10.0 mi ESE 4.6 mph - 0.00 in   Mostly Cloudy
5:56 PM 75.0 °F - 71.1 °F 87% 29.99 in 10.0 mi ESE 4.6 mph - 0.00 in Rain Light Rain
6:06 PM 75.2 °F - 71.6 °F 89% 29.99 in 7.0 mi SE 3.5 mph - 0.01 in Rain Rain
6:19 PM 75.2 °F - 71.6 °F 89% 29.99 in 5.0 mi Calm Calm - 0.03 in Rain , Thunderstorm Light Thunderstorms and Rain
6:56 PM 75.9 °F - 72.0 °F 87% 29.97 in 8.0 mi East 5.8 mph - 0.06 in Rain Light Rain
7:05 PM 75.2 °F - 73.4 °F 94% 29.97 in 10.0 mi ENE 9.2 mph - 0.00 in Rain Light Rain
7:28 PM 75.2 °F - 71.6 °F 89% 29.99 in 10.0 mi NE 3.5 mph - 0.00 in   Mostly Cloudy
7:56 PM 75.0 °F - 71.1 °F 87% 30.01 in 10.0 mi ENE 8.1 mph - 0.00 in   Mostly Cloudy
8:41 PM 73.4 °F - 71.6 °F 94% 30.04 in 10.0 mi ENE 3.5 mph - N/A   Overcast
8:56 PM 73.9 °F - 71.1 °F 91% 30.04 in 10.0 mi East 4.6 mph - 0.01 in Rain Light Rain
9:37 PM 73.4 °F - 71.6 °F 94% 30.03 in 10.0 mi Calm Calm - 0.03 in Rain Light Rain
9:56 PM 73.9 °F - 71.1 °F 91% 30.03 in 10.0 mi ENE 4.6 mph - 0.04 in Rain Light Rain
10:22 PM 73.4 °F - 71.6 °F 94% 30.04 in 10.0 mi Calm Calm - 0.00 in   Overcast
10:56 PM 75.0 °F - 72.0 °F 90% 30.06 in 10.0 mi North 3.5 mph - 0.00 in   Overcast
11:08 PM 75.2 °F - 71.6 °F 89% 30.06 in 10.0 mi NNE 3.5 mph - N/A   Overcast
11:34 PM 75.2 °F - 71.6 °F 89% 30.05 in 10.0 mi NNE 3.5 mph - N/A   Overcast
11:56 PM 75.0 °F - 72.0 °F 90% 30.04 in 10.0 mi ENE 4.6 mph - N/A   Overcast